CW1490 Weather Reports


time (UTC)temp
C
wind
direction
speed
KPH
gust
KPH
rain 1hr
cm
rain 24hr
cm
rain mn
cm
humidity
%
barometer
mb
20260509154003 7 9 0.0 3.2 0.20 0.36 0.36 93 1014.3
20260509153502 7 309 0.0 3.2 0.18 0.33 0.33 93 1014.4
20260509153006 6 221 0.0 3.2 0.18 0.33 0.33 93 1014.5
20260509152503 6 34 0.0 3.2 0.18 0.30 0.30 93 1014.6
20260509152002 6 178 0.0 4.8 0.15 0.28 0.28 93 1014.6
20260509151510 6 153 0.0 4.8 0.13 0.25 0.25 93 1014.7
20260509151003 6 178 1.6 6.4 0.10 0.23 0.23 92 1014.8
20260509150503 6 9 1.6 6.4 0.13 0.23 0.23 93 1014.7
20260509150008 6 178 1.6 6.4 0.10 0.20 0.20 93 1014.8
20260509145504 6 178 1.6 6.4 0.08 0.18 0.18 93 1014.7
20260509145003 6 178 1.6 6.4 0.10 0.18 0.18 92 1014.7
20260509144512 6 196 1.6 6.4 0.08 0.15 0.15 92 1014.6
20260509144004 6 196 1.6 6.4 0.08 0.15 0.15 92 1014.6
20260509143504 6 131 1.6 4.8 0.10 0.15 0.15 92 1014.6
20260509143014 5 67 0.0 4.8 0.10 0.15 0.15 92 1014.6
20260509142503 6 51 0.0 4.8 0.08 0.13 0.13 92 1014.5
20260509142003 5 232 3.2 4.8 0.08 0.13 0.13 92 1014.6
20260509141518 5 190 1.6 4.8 0.08 0.13 0.13 92 1014.5
20260509141004 5 119 1.6 4.8 0.08 0.13 0.13 92 1014.6
20260509140504 5 51 1.6 4.8 0.08 0.10 0.10 92 1014.5
20260509140010 5 126 0.0 4.8 0.08 0.10 0.10 91 1014.5
20260509135506 5 146 1.6 6.4 0.08 0.10 0.10 91 1014.5
20260509135005 5 129 1.6 6.4 0.08 0.08 0.08 91 1014.6
20260509134512 5 178 1.6 6.4 0.08 0.08 0.08 91 1014.6
20260509134005 5 146 1.6 6.4 0.08 0.08 0.08 91 1014.6
20260509133507 5 190 1.6 6.4 0.05 0.05 0.05 90 1014.6
20260509133015 5 188 1.6 6.4 0.05 0.05 0.05 90 1014.6
20260509132504 5 178 1.6 6.4 0.05 0.05 0.05 90 1014.5
20260509132006 5 193 1.6 6.4 0.05 0.05 0.05 90 1014.5
20260509131516 5 165 3.2 6.4 0.05 0.05 0.05 89 1014.6
20260509131004 5 137 1.6 8.0 0.05 0.05 0.05 88 1014.5
20260509130504 5 250 3.2 8.0 0.03 0.03 0.03 88 1014.5
20260509130008 4 193 1.6 8.0 0.03 0.03 0.03 88 1014.4
20260509125504 4 239 3.2 8.0 0.03 0.03 0.03 89 1014.4
20260509125002 4 209 3.2 6.4 0.00 0.00 0.00 88 1014.4
20260509124525 4 202 3.2 6.4 0.00 0.00 0.00 89 1014.4
20260509124003 4 208 1.6 6.4 0.00 0.00 0.00 88 1014.5
20260509123507 4 93 0.0 3.2 0.00 0.00 0.00 87 1014.5
20260509123025 4 51 0.0 4.8 0.00 0.00 0.00 87 1014.5
20260509122506 4 309 1.6 4.8 0.00 0.00 0.00 87 1014.6
20260509122007 4 330 1.6 4.8 0.00 0.00 0.00 87 1014.6
20260509121520 4 34 3.2 4.8 0.00 0.00 0.00 86 1014.6
20260509121007 3 34 1.6 4.8 0.00 0.00 0.00 86 1014.7
20260509120510 3 51 1.6 4.8 0.00 0.00 0.00 86 1014.9
20260509120017 3 51 1.6 6.4 0.00 0.00 0.00 87 1014.8
20260509115506 3 64 3.2 6.4 0.00 0.00 0.00 88 1015.0
20260509115005 3 51 1.6 4.8 0.00 0.00 0.00 87 1015.0
20260509114510 3 67 1.6 6.4 0.00 0.00 0.00 88 1014.9
20260509114003 3 41 1.6 6.4 0.00 0.00 0.00 89 1015.0
20260509113507 3 48 3.2 6.4 0.00 0.00 0.00 89 1015.0
20260509113014 3 55 3.2 6.4 0.00 0.00 0.00 89 1015.0
20260509112508 3 51 1.6 4.8 0.00 0.00 0.00 90 1015.1
20260509112006 3 9 0.0 3.2 0.00 0.00 0.00 90 1015.1
20260509111520 2 9 0.0 3.2 0.00 0.00 0.00 91 1015.1
20260509111006 2 265 1.6 4.8 0.00 0.00 0.00 91 1015.0
20260509110506 2 221 1.6 4.8 0.00 0.00 0.00 91 1015.1
20260509110025 2 178 0.0 4.8 0.00 0.00 0.00 91 1015.1
20260509105507 2 229 1.6 6.4 0.00 0.00 0.00 92 1015.2
20260509105010 2 221 1.6 6.4 0.00 0.00 0.00 92 1015.2
20260509104520 2 221 3.2 6.4 0.00 0.00 0.00 92 1015.1
20260509104002 2 190 0.0 3.2 0.00 0.00 0.00 92 1015.2
20260509103502 2 319 0.0 3.2 0.00 0.00 0.00 92 1015.2
20260509103011 2 291 0.0 3.2 0.00 0.00 0.00 92 1015.1
20260509102505 1 26 1.6 3.2 0.00 0.00 0.00 92 1015.0
20260509102006 1 338 0.0 3.2 0.00 0.00 0.00 92 1015.0
20260509101521 1 26 1.6 4.8 0.00 0.00 0.00 92 1014.9
20260509101006 1 178 0.0 4.8 0.00 0.00 0.00 92 1014.9
20260509100502 1 9 1.6 4.8 0.00 0.00 0.00 92 1014.8
20260509100004 1 22 1.6 4.8 0.00 0.00 0.00 92 1014.7
20260509095503 1 38 1.6 4.8 0.00 0.00 0.00 92 1014.7
20260509095005 1 76 0.0 4.8 0.00 0.00 0.00 92 1014.7
20260509094503 1 51 0.0 4.8 0.00 0.00 0.00 92 1014.8
20260509094004 1 34 1.6 4.8 0.00 0.00 0.00 92 1014.8
20260509093502 1 46 1.6 4.8 0.00 0.00 0.00 92 1014.6
20260509093017 1 9 1.6 4.8 0.00 0.00 0.00 92 1014.7
20260509092502 1 9 0.0 1.6 0.00 0.00 0.00 92 1014.6
20260509092003 1 51 0.0 3.2 0.00 0.00 0.00 92 1014.6
20260509091514 1 205 0.0 3.2 0.00 0.00 0.00 92 1014.7
20260509091003 1 319 0.0 3.2 0.00 0.00 0.00 92 1014.7
20260509090507 1 279 0.0 1.6 0.00 0.00 0.00 92 1014.6
20260509090021 1 153 0.0 3.2 0.00 0.00 0.00 92 1014.7
20260509085507 1 178 0.0 3.2 0.00 0.00 0.00 92 1014.8
20260509085003 1 9 0.0 3.2 0.00 0.00 0.00 92 1014.6
20260509084511 0 250 1.6 3.2 0.00 0.00 0.00 92 1014.6
20260509084004 0 282 1.6 3.2 0.00 0.00 0.00 92 1014.5
20260509083503 0 309 1.6 6.4 0.00 0.00 0.00 92 1014.5
20260509083005 0 238 3.2 6.4 0.00 0.00 0.00 92 1014.5
20260509082503 0 205 3.2 6.4 0.00 0.00 0.00 92 1014.4
20260509082003 0 196 1.6 6.4 0.00 0.00 0.00 92 1014.5
20260509081510 0 212 1.6 6.4 0.00 0.00 0.00 92 1014.6
20260509081006 0 232 1.6 6.4 0.00 0.00 0.00 92 1014.4
20260509080504 0 225 3.2 6.4 0.00 0.00 0.00 92 1014.2
20260509080014 0 238 1.6 4.8 0.00 0.00 0.00 92 1014.2
20260509075510 0 280 1.6 4.8 0.00 0.00 0.00 92 1014.2
20260509075006 0 232 0.0 3.2 0.00 0.00 0.00 91 1014.1
20260509074525 0 325 0.0 3.2 0.00 0.00 0.00 91 1014.1
20260509074008 0 221 1.6 4.8 0.00 0.00 0.00 91 1014.0
20260509073508 0 221 0.0 4.8 0.00 0.00 0.00 91 1013.9
20260509073024 0 205 0.0 4.8 0.00 0.00 0.00 91 1013.9
20260509072503 0 309 3.2 4.8 0.00 0.00 0.00 91 1013.9
20260509072008 0 329 3.2 4.8 0.00 0.00 0.00 91 1013.8
20260509071508 0 41 1.6 4.8 0.00 0.00 0.00 91 1014.0
20260509071004 0 265 0.0 4.8 0.00 0.00 0.00 91 1014.1
20260509070503 0 93 0.0 4.8 0.00 0.00 0.00 91 1014.2
20260509070012 0 225 3.2 4.8 0.00 0.00 0.00 91 1014.1
20260509065503 0 221 3.2 4.8 0.00 0.00 0.00 91 1014.1
20260509065009 0 232 0.0 6.4 0.00 0.00 0.00 90 1013.9
20260509064517 0 9 1.6 6.4 0.00 0.00 0.00 90 1013.9
20260509064007 0 9 3.2 6.4 0.00 0.00 0.00 90 1013.9
20260509063506 0 24 1.6 4.8 0.00 0.00 0.00 90 1013.9
20260509063021 1 17 3.2 4.8 0.00 0.00 0.00 90 1014.0
20260509062507 1 9 0.0 3.2 0.00 0.00 0.00 90 1014.0
20260509062008 1 265 0.0 3.2 0.00 0.00 0.00 90 1014.0
20260509061524 1 9 0.0 3.2 0.00 0.00 0.00 90 1014.1
20260509061009 1 238 0.0 3.2 0.00 0.00 0.00 90 1014.3
20260509060505 1 232 0.0 3.2 0.00 0.00 0.00 90 1014.3
20260509060010 1 9 0.0 3.2 0.00 0.00 0.00 89 1014.3
20260509055504 1 250 1.6 4.8 0.00 0.00 0.00 89 1014.3
20260509055006 1 19 1.6 4.8 0.00 0.00 0.00 89 1014.2
20260509054523 1 341 1.6 3.2 0.00 0.00 0.00 89 1014.3
20260509054007 1 238 1.6 3.2 0.00 0.00 0.00 89 1014.3
20260509053509 1 250 0.0 3.2 0.00 0.00 0.00 89 1014.4
20260509053052 1 51 0.0 4.8 0.00 0.00 0.00 89 1014.4
20260509052505 1 265 3.2 6.4 0.00 0.00 0.00 89 1014.4
20260509052014 1 249 3.2 6.4 0.00 0.00 0.00 89 1014.3
20260509051526 1 225 3.2 6.4 0.00 0.00 0.00 89 1014.3
20260509051010 1 201 1.6 4.8 0.00 0.00 0.00 89 1014.2
20260509050509 1 221 3.2 4.8 0.00 0.00 0.00 89 1014.2
20260509050037 1 227 1.6 4.8 0.00 0.00 0.00 88 1014.2
20260509045507 1 243 1.6 8.0 0.00 0.00 0.00 88 1014.1
20260509045009 1 265 3.2 8.0 0.00 0.00 0.00 88 1014.1
20260509044515 1 219 4.8 8.0 0.00 0.00 0.00 88 1014.0
20260509044004 1 247 1.6 6.4 0.00 0.00 0.00 88 1014.0
20260509043504 1 265 3.2 6.4 0.00 0.00 0.00 88 1014.0
20260509043018 1 227 4.8 6.4 0.00 0.00 0.00 88 1014.0
20260509042510 1 265 1.6 3.2 0.00 0.00 0.00 87 1013.9
20260509042008 2 51 0.0 3.2 0.00 0.00 0.00 87 1013.8
20260509041519 2 232 1.6 4.8 0.00 0.00 0.00 87 1013.8
20260509041009 2 247 1.6 4.8 0.00 0.00 0.00 86 1013.7
20260509040517 2 265 1.6 4.8 0.00 0.00 0.00 86 1013.8
20260509040022 2 319 1.6 4.8 0.00 0.00 0.00 86 1013.8
20260509035507 2 265 1.6 4.8 0.00 0.00 0.00 86 1013.8
20260509035011 2 217 1.6 4.8 0.00 0.00 0.00 85 1013.8
20260509034526 2 243 0.0 4.8 0.00 0.00 0.00 85 1013.8
20260509034013 2 265 1.6 6.4 0.00 0.00 0.00 84 1013.8
20260509033507 3 247 3.2 6.4 0.00 0.00 0.00 84 1013.8
20260509033026 3 257 3.2 6.4 0.00 0.00 0.00 83 1013.7
20260509032507 3 219 3.2 6.4 0.00 0.00 0.00 83 1013.7
20260509032007 3 227 3.2 6.4 0.00 0.00 0.00 82 1013.7
20260509031516 3 249 3.2 8.0 0.00 0.00 0.00 82 1013.7
20260509031006 3 242 3.2 8.0 0.00 0.00 0.00 82 1013.7
20260509030507 3 255 3.2 6.4 0.00 0.00 0.00 81 1013.6
20260509030031 3 257 3.2 6.4 0.00 0.00 0.00 81 1013.6
20260509025510 3 238 3.2 6.4 0.00 0.00 0.00 81 1013.6
20260509025009 3 207 4.8 6.4 0.00 0.00 0.00 82 1013.6
20260509024523 4 165 1.6 6.4 0.00 0.00 0.00 81 1013.5
20260509024009 4 178 3.2 6.4 0.00 0.00 0.00 81 1013.5
20260509023508 4 51 1.6 6.4 0.00 0.00 0.00 80 1013.4
20260509023040 4 227 3.2 8.0 0.00 0.00 0.00 80 1013.3
20260509022507 4 259 3.2 9.7 0.00 0.00 0.00 80 1013.3
20260509022011 4 234 6.4 9.7 0.00 0.00 0.00 80 1013.2
20260509021528 4 178 3.2 8.0 0.00 0.00 0.00 80 1013.1
20260509021007 5 205 1.6 4.8 0.00 0.00 0.00 79 1013.1
20260509020504 5 257 1.6 6.4 0.00 0.00 0.00 79 1013.0
20260509020018 5 265 3.2 6.4 0.00 0.00 0.00 79 1012.9
20260509015506 5 255 3.2 4.8 0.00 0.00 0.00 79 1012.8
20260509015007 5 196 0.0 6.4 0.00 0.00 0.00 80 1012.8
20260509014526 5 205 3.2 6.4 0.00 0.00 0.00 79 1012.9
20260509014003 5 238 1.6 4.8 0.00 0.00 0.00 78 1012.8
20260509013503 6 238 1.6 4.8 0.00 0.00 0.00 77 1012.7
20260509013006 6 243 1.6 6.4 0.00 0.00 0.00 76 1012.7
20260509012503 6 257 3.2 6.4 0.00 0.00 0.00 75 1012.7
20260509012003 6 232 3.2 4.8 0.00 0.00 0.00 75 1012.5
20260509011512 6 51 1.6 4.8 0.00 0.00 0.00 73 1012.5
20260509011003 6 265 0.0 6.4 0.00 0.00 0.00 72 1012.5
20260509010506 7 265 3.2 8.0 0.00 0.00 0.00 71 1012.4
20260509010019 7 241 3.2 8.0 0.00 0.00 0.00 70 1012.2
20260509005505 7 234 3.2 6.4 0.00 0.00 0.00 69 1012.2
20260509005007 7 232 3.2 6.4 0.00 0.00 0.00 67 1012.1
20260509004520 8 265 3.2 6.4 0.00 0.00 0.00 66 1012.1
20260509004007 8 205 1.6 4.8 0.00 0.00 0.00 65 1012.0
20260509003512 8 319 1.6 6.4 0.00 0.00 0.00 64 1011.9
20260509003004 8 330 3.2 6.4 0.00 0.00 0.00 62 1011.7
20260509002501 8 309 3.2 6.4 0.00 0.00 0.00 63 1011.6
20260509002004 9 325 0.0 4.8 0.00 0.00 0.00 64 1011.6
20260509001511 9 232 0.0 4.8 0.00 0.00 0.00 63 1011.6
20260509001002 9 265 0.0 4.8 0.00 0.00 0.00 61 1011.6
20260509000504 10 51 0.0 4.8 0.00 0.00 0.00 59 1011.6
20260509000013 10 298 0.0 9.7 0.00 0.00 0.00 58 1011.5
20260508235507 10 238 1.6 9.7 0.00 0.00 0.00 61 1011.4
20260508235007 10 63 3.2 6.4 0.00 0.00 0.00 57 1011.3
20260508234523 10 51 0.0 4.8 0.00 0.00 0.00 56 1011.3
20260508234010 10 34 3.2 6.4 0.00 0.00 0.00 54 1011.2
20260508233506 10 282 3.2 6.4 0.00 0.00 0.00 56 1011.1
20260508233024 11 168 1.6 9.7 0.00 0.00 0.00 54 1011.1
20260508232509 11 17 1.6 9.7 0.00 0.00 0.00 56 1011.1
20260508232007 11 24 1.6 12.9 0.00 0.00 0.00 58 1011.0
20260508231526 11 170 3.2 12.9 0.00 0.00 0.00 56 1011.0
20260508231009 11 225 3.2 16.1 0.00 0.00 0.00 57 1010.9
20260508230504 11 51 3.2 16.1 0.00 0.00 0.00 55 1011.0
20260508230011 10 311 3.2 14.5 0.00 0.00 0.00 57 1010.9
20260508225508 10 291 1.6 14.5 0.00 0.00 0.00 59 1010.9
20260508225005 10 30 6.4 17.7 0.00 0.00 0.00 58 1010.8
20260508224514 10 340 8.0 19.3 0.00 0.00 0.00 57 1010.9
20260508224006 10 339 1.6 19.3 0.00 0.00 0.00 59 1010.8
20260508223512 10 340 4.8 20.9 0.00 0.00 0.00 58 1010.8
20260508223020 10 22 6.4 20.9 0.00 0.00 0.00 58 1010.8
20260508222507 10 26 6.4 14.5 0.00 0.00 0.00 57 1010.7
20260508222010 11 13 6.4 17.7 0.00 0.00 0.00 57 1010.6
20260508221523 11 13 9.7 17.7 0.00 0.00 0.00 55 1010.6
20260508221009 11 319 9.7 24.1 0.00 0.00 0.00 57 1010.7
20260508220509 11 41 11.3 24.1 0.00 0.00 0.00 57 1010.6
20260508220025 11 330 9.7 19.3 0.00 0.00 0.00 57 1010.6
20260508215510 11 28 8.0 20.9 0.00 0.00 0.00 60 1010.6
20260508215007 11 31 8.0 24.1 0.00 0.00 0.00 62 1010.7
20260508214512 11 45 11.3 24.1 0.00 0.00 0.00 61 1010.6
20260508214005 10 38 11.3 19.3 0.00 0.00 0.00 62 1010.6
20260508213511 11 42 11.3 29.0 0.00 0.00 0.00 63 1010.6
20260508213019 10 50 11.3 29.0 0.00 0.00 0.00 59 1010.6
20260508212509 10 336 16.1 29.0 0.00 0.00 0.00 58 1010.6
20260508212010 11 344 9.7 37.0 0.00 0.00 0.00 56 1010.5
20260508211527 12 324 19.3 37.0 0.00 0.00 0.00 49 1010.3
20260508211009 12 333 16.1 29.0 0.00 0.00 0.00 45 1010.2
20260508210509 12 24 3.2 16.1 0.00 0.00 0.00 43 1009.9
20260508210027 13 205 8.0 22.5 0.00 0.00 0.00 41 1009.9
20260508205510 13 247 4.8 25.7 0.00 0.00 0.00 40 1009.9
20260508205011 13 277 11.3 25.7 0.00 0.00 0.00 39 1009.7
20260508204530 13 221 12.9 33.8 0.00 0.00 0.00 43 1009.6
20260508204010 13 334 6.4 33.8 0.00 0.00 0.00 40 1009.6
20260508203505 13 223 12.9 32.2 0.00 0.00 0.00 40 1009.6
20260508203017 13 240 6.4 29.0 0.00 0.00 0.00 42 1009.7
20260508202505 13 254 12.9 29.0 0.00 0.00 0.00 40 1009.8
20260508202006 14 257 12.9 27.4 0.00 0.00 0.00 40 1009.7
20260508201518 14 139 4.8 27.4 0.00 0.00 0.00 39 1009.7
20260508201009 14 234 6.4 22.5 0.00 0.00 0.00 45 1009.6
20260508200510 13 254 8.0 22.5 0.00 0.00 0.00 46 1009.6
20260508200030 13 213 8.0 25.7 0.00 0.00 0.00 43 1009.5
20260508195509 13 344 9.7 27.4 0.00 0.00 0.00 41 1009.7
20260508195011 13 347 11.3 27.4 0.00 0.00 0.00 41 1009.7
20260508194527 13 237 8.0 25.7 0.00 0.00 0.00 45 1009.9
20260508194003 13 280 8.0 25.7 0.00 0.00 0.00 45 1009.8
20260508193503 13 270 11.3 32.2 0.00 0.00 0.00 45 1009.8
20260508193028 14 250 16.1 32.2 0.00 0.00 0.00 41 1009.8
20260508192509 14 234 8.0 30.6 0.00 0.00 0.00 49 1009.7
20260508192010 13 277 17.7 30.6 0.00 0.00 0.00 44 1009.8
20260508191517 13 202 17.7 30.6 0.00 0.00 0.00 40 1009.7
20260508191008 14 236 16.1 33.8 0.00 0.00 0.00 40 1009.7
20260508190506 14 284 12.9 33.8 0.00 0.00 0.00 41 1009.9
20260508190004 15 282 9.7 40.2 0.00 0.00 0.00 39 1009.7
20260508185503 14 309 8.0 40.2 0.00 0.00 0.00 43 1009.7
20260508185003 13 229 8.0 25.7 0.00 0.00 0.00 46 1009.8
20260508184504 13 227 16.1 25.7 0.00 0.00 0.00 42 1009.8
20260508184003 13 225 11.3 25.7 0.00 0.00 0.00 42 1009.9
20260508183503 13 273 11.3 27.4 0.00 0.00 0.00 40 1009.9
20260508183026 13 344 8.0 27.4 0.00 0.00 0.00 41 1009.8
20260508182503 13 225 6.4 22.5 0.00 0.00 0.00 43 1009.9
20260508182003 13 219 16.1 22.5 0.00 0.00 0.00 43 1009.9
20260508181516 13 269 6.4 29.0 0.00 0.00 0.00 41 1009.9
20260508181009 12 314 6.4 29.0 0.00 0.00 0.00 43 1009.9
20260508180507 12 344 4.8 45.1 0.00 0.00 0.00 42 1010.0
20260508180023 13 273 11.3 45.1 0.00 0.00 0.00 42 1010.0
20260508175507 13 211 12.9 30.6 0.00 0.00 0.00 44 1010.0
20260508175012 13 265 9.7 30.6 0.00 0.00 0.00 44 1010.0
20260508174510 12 231 6.4 30.6 0.00 0.00 0.00 44 1009.9
20260508174003 13 242 14.5 37.0 0.00 0.00 0.00 39 1009.8
20260508173504 13 236 12.9 37.0 0.00 0.00 0.00 42 1010.0
20260508173011 13 291 16.1 37.0 0.00 0.00 0.00 44 1009.9
20260508172506 13 248 4.8 27.4 0.00 0.00 0.00 38 1010.1
20260508172003 13 329 8.0 27.4 0.00 0.00 0.00 43 1010.0
20260508171511 12 17 11.3 25.7 0.00 0.00 0.00 41 1010.1
20260508171004 12 317 9.7 25.7 0.00 0.00 0.00 41 1010.1
20260508170504 12 232 14.5 25.7 0.00 0.00 0.00 40 1010.0
20260508170018 12 250 8.0 22.5 0.00 0.00 0.00 45 1010.0
20260508165506 12 269 8.0 19.3 0.00 0.00 0.00 39 1010.0
20260508165009 13 86 6.4 24.1 0.00 0.00 0.00 41 1010.0
20260508164522 12 215 11.3 24.1 0.00 0.00 0.00 44 1009.9
20260508164007 12 234 6.4 22.5 0.00 0.00 0.00 41 1009.9
20260508163507 12 310 4.8 17.7 0.00 0.00 0.00 42 1010.1
20260508163039 12 305 6.4 17.7 0.00 0.00 0.00 40 1010.1
20260508162504 12 312 4.8 17.7 0.00 0.00 0.00 41 1010.1
20260508162006 12 288 4.8 16.1 0.00 0.00 0.00 40 1010.1
20260508161512 12 202 6.4 16.1 0.00 0.00 0.00 39 1010.0
20260508161005 12 309 6.4 22.5 0.00 0.00 0.00 39 1010.1
20260508160504 12 51 8.0 27.4 0.00 0.00 0.00 42 1010.1
20260508160016 12 247 8.0 27.4 0.00 0.00 0.00 40 1010.1
20260508155505 12 295 9.7 19.3 0.00 0.00 0.00 37 1010.1
20260508155011 12 20 4.8 12.9 0.00 0.00 0.00 47 1010.1
20260508154519 12 178 4.8 22.5 0.00 0.00 0.00 40 1010.1